DECAYED

CZ-2D DEB, 38300 (Decayed)

Orbit data source: Space-Track

CZ-2D DEB, 38300 was space debris in SSO originally from a launch on Tue, 15 Jun 2010 UTC launched from the Jiuquan Satellite Launch Center, China (JSC). Debris objects in space refer to the collection of defunct objects orbiting the Earth. Examples of debris include non-operational satellites, rocket bodies, and fragments generated from explosions, collisions, or faulty payload assembly.

Not visible in the next 10 days
Identifier
38300, 2010-027E
Orbit
Decayed
Country
Flag of CNCN / PRC
Related business
Manufacturer
Unknown
Mission
Decayed spacecraft
Bus & Motor
Unknown
Mass
Unknown
Launch date (UTC)
2010-06-15 (16 years ago)
Launch vehicle
Unknown
Launch site
Jiuquan Satellite Launch Center, China (JSC)
Object type
Payload
Rocket body
Debris
Shape & HBR
Unknown shape, 0.1 m
Radar Cross Section
Small (<0.1 m²)

Expand to show TLE details & history
Last TLE update: 1 year ago

TLE from 1 year ago
0 CZ-2D DEB
1 38300U 10027E   25035.06770409  .02042993  24141-2  61964-2 0  9993
2 38300  97.6826 156.7095 0029414 328.9448  31.0085 15.91888816777930
Epoch: 2025-02-04T01:37Z
TLE epoch observation values (Epoch: 2025-02-04T01:37:29.633Z)
Latitude
-0.00001°
Longitude
-2.14228°
Altitude
283.359 km
Speed
7.747 km/s
True Right ascension
10h 26m 50s
True Declination
0° 00' 00"
Sunlit
Object was in full shadow at epoch
Visualization orbit readout
Latitude
Unknown
Longitude
Unknown
Altitude
Unknown
Speed
Unknown
Apparent Right ascension
Unknown
Apparent Declination
Unknown
Sunlit
N/A
Visualization observer readout
Local Sidereal Time
23:37:26
Azimuth
Unknown
Elevation
Unknown
Doppler factor
Unknown
Orbital elements
Apogee altitude
313.506 km
Perigee altitude
274.256 km
Semi-major axis
6,672.018 km
Eccentricity
0.00294
Inclination
97.6826°
RAAN
156.7095°
Arg. of periapsis
328.9448°
True anomaly
31.18269°
Mean anomaly
31.0085°
Eccentric anomaly
31.09554°
Mean motion
3.98251 °/min
Orbital period
90.4 mins
BSTAR
0.0061964
Loading maneuver chart data...
Computing Atmospheric mass density...
Loading historical data...
Loading historical data...
Loading historical data...
Loading historical data...
Loading historical data...
Loading historical data...
Loading historical data...

Documentation

Showing up to 5 results
|